Regional Weather Roundup
Issued by NWS

Home | Current Version | Previous Version | Graphics & Text | Print | Product List | Glossary On
Versions: 1 2 3 4 5 6 7 8 9 10 11 12 13 14 15 16 17 18 19 20 21 22 23 24 25 26 27 28
000
ASUS45 KBOU 251110
RWRCO

WEATHER ROUNDUP FOR COLORADO
NATIONAL WEATHER SERVICE DENVER/BOULDER CO
500 AM MDT FRI MAY 25 2018

NOTE: "FAIR" INDICATES FEW OR NO CLOUDS BELOW 12000 FEET WITH NO
SIGNIFICANT WEATHER AND/OR OBSTRUCTIONS TO VISIBILITY.

COZ001>005-013-030-031-251200-
...NORTHWEST COLORADO...

CITY           SKY/WX    TMP DP  RH WIND       PRES   REMARKS
CRAIG          FAIR      36  32  85 CALM      30.19R
HAYDEN         FAIR      45  34  65 E14       30.21S
MEEKER         FAIR      41  33  73 E3        30.19S
RANGELY        FAIR      52  30  44 SE8       30.10S
RABBIT EARS PA FAIR      46  27  46 S7        30.43F
STEAMBOAT SPGS FAIR      40  33  74 CALM      30.22S
WALDEN         FAIR      34  27  75 CALM      30.31S
$$

COZ006>008-011-251200-
...WEST CENTRAL VALLEYS...

CITY           SKY/WX    TMP DP  RH WIND       PRES   REMARKS
GRAND JUNCTION FAIR      57  27  31 SE18      30.08R
MONTROSE       FAIR      51  23  33 SE7       30.17
EAGLE          FAIR      40  27  59 E6        30.28R
RIFLE          FAIR      45  27  49 SE6       30.16R
DELTA          FAIR      55  27  34 NE8       30.14R
NUCLA          FAIR      50  14  23 SE7       30.20R
$$

COZ017>023-064>068-251200-
...SOUTHWEST COLORADO...

CITY           SKY/WX    TMP DP  RH WIND       PRES   REMARKS
DURANGO        FAIR      41  18  39 N6        30.23R
CORTEZ         FAIR      46  19  34 NE10      30.19R
PAGOSA SPRINGS FAIR      39   9  28 CALM      30.29S
TELLURIDE      FAIR      45  17  32 SE8       30.38F
WOLF CREEK PAS FAIR      43   1  17 SW9       30.59F
$$

COZ009-010-012-014-032>034-037-058>063-251200-
...CENTRAL COLORADO...

CITY           SKY/WX    TMP DP  RH WIND       PRES   REMARKS
ASPEN          FAIR      44  26  49 SW9       30.27S
BUENA VISTA    FAIR      44  24  45 NW9       30.32S
COPPER MTN     FAIR      46  18  31 SW12      30.53S
BERTHOUD PASS  FAIR      37  28  70 W20       30.55S
COTTONWOOD PAS FAIR      55  19  24 W8        30.41S
GUNNISON       FAIR      37  25  61 CALM      30.34R
GRANBY         FAIR      33  30  88 E3        30.34S
KREMMLING      FAIR      41  34  75 CALM      30.32R
LEADVILLE      FAIR      33  22  63 CALM      30.41S
MONARCH PASS   FAIR      43  18  36 MISG      30.64S
SALIDA         FAIR      48  27  45 W3        30.37S
SUNLIGHT       FAIR      45  18  33 SW6       30.48S
WILKERSON PASS FAIR      43  28  56 W5        30.52S
$$

COZ069>075-251200-
...SAN LUIS VALLEY/SANGRE DE CRISTO MOUNTAINS...

CITY           SKY/WX    TMP DP  RH WIND       PRES   REMARKS
ALAMOSA        NOT AVBL
DEL NORTE      FAIR      47  13  25 W10       30.32R
LA VETA PASS   FAIR      46  21  36 S14       30.53S
SAGUACHE       NOT AVBL
$$

COZ035-036-038>040-251200-
...NORTHERN COLORADO FRONT RANGE...

CITY           SKY/WX    TMP DP  RH WIND       PRES   REMARKS
DENVER INTL AP FAIR      57  39  51 SW10      30.10S
AURORA         PTCLDY    54  39  56 S6        30.12S
FRONT RANGE AP FAIR      58  40  49 SW7       30.12S
ERIE MUNI ARPT FAIR      48  44  85 SW3       30.15S
BOULDER MUN AP FAIR      54  43  66 W3        30.10S
CENTENNIAL     FAIR      58  38  47 SW5       30.13F
BROOMFIELD     FAIR      57  37  47 CALM      30.13R
FORT COLLINS   FAIR      51  44  77 W5        30.10S
LONGMONT       NOT AVBL
$$

COZ041-046-047-076>085-087-088-251200-
...PIKES PEAK/PALMER DIVIDE AND SOUTHERN FOOTHILLS...

CITY           SKY/WX    TMP DP  RH WIND       PRES   REMARKS
COLO. SPRINGS  FAIR      52  39  61 N9        30.18S
A. F. ACADEMY  FAIR      44  37  75 N10       30.20R
SCHRIEVER AFB  NOT AVBL
CHEYENNE MTN   FAIR      59  34  38 CALM      30.17R
ELLICOTT       NOT AVBL
FALCON         NOT AVBL
FORT CARSON    FAIR      54  36  51 NW12      30.14S
LIMON          FAIR      44  39  82 N6        30.12S
MONUMENT HILL  FAIR      50  34  53 SW7       30.23F
CANON CITY     CLEAR     61  37  41 W17       30.13S
WALSENBURG     FAIR      57  36  44 W10       30.17S
TRINIDAD       FAIR      52  34  50 W8        30.15R
$$

COZ042>045-048>051-090-091-251200-
...NORTHEAST COLORADO...

CITY           SKY/WX    TMP DP  RH WIND       PRES   REMARKS
GREELEY ARPT   FAIR      51  48  89 W3        30.09
AKRON          FAIR      56  44  64 W10       30.06F
BURLINGTON     FAIR      49  45  86 W9        30.04S
WRAY           FAIR      54  46  76 W5        30.01S
YUMA           FAIR      52  46  82 W9        30.03S
STERLING       FAIR      50  46  87 S5        30.03S
HOLYOKE        FAIR      59  50  72 W8        30.00S
FORT MORGAN    FAIR      53  42  65 W7        30.07S
$$

COZ086-089-092>099-251200-
...SOUTHEAST COLORADO...

CITY           SKY/WX    TMP DP  RH WIND       PRES   REMARKS
PUEBLO         FAIR      59  39  47 NW9       30.09S
LA JUNTA       FAIR      55  45  68 NW7       30.04S
LAMAR          FAIR      50  44  80 CALM      29.97F
SPRINGFIELD      N/A     54  49  83 NW13      30.00R
$$




USA.gov is the U.S. government's official web portal to all federal, state and local government web resources and services.